Location: Fontevrault
(47.1823°N, 0.0493°E)
Time: 18:24:03
(UTC+00:00)

Cosmos 1725 Rocket - Pass Details

Date: 29 October 2021
Orbit: 961 x 991 km, 82.9° (Epoch: 27 November)

Event Time Altitude Azimuth Distance (km) Brightness Sun altitude
Rises 17:55:39 0° 139° (SE) 3,658 6.7 -12.0°
Reaches altitude 10° 17:58:55 10° 122° (ESE) 2,711 5.9 -12.6°
Maximum altitude 18:03:01 19° 80° (E) 2,138 5.1 -13.3°
Drops below altitude 10° 18:07:07 10° 38° (NE) 2,712 5.9 -14.0°
Sets 18:10:22 0° 22° (NNE) 3,661 6.7 -14.5°
